Zurück zum Katalog

STARLINK-37479

AktivKommunikationSSO
NORAD 68861·PAYLOAD·🇺🇸 United States

Gestartet Apr 26, 2026 von Vandenberg Space Force Base

Loading…

Nächste Überflüge (nächste 24 Stunden)

TLE

AktuellSource: CelesTrak SupGP

Epoche: Sep 14, 2026, 22:40 UTC

1 68861C 26094Y   26257.94493056  .00047155  00000+0  14639-2 0  2575
2 68861  97.2838 271.2270 0001639  88.3762 194.4949 15.33413529    19

Verfolge STARLINK-37479 in Echtzeit mit AllMySat

Download on the App Store